When you browse on this site, cookies collect data to enhance your experience and personalize the content and advertising you see.
Visit our Privacy Policy to learn more. By continuing to use the site, you agree to this use of cookies and data.
  • In Hungary
  • List of Countries
  • For 7 days
  • Water Temperature
  • Satellite Maps
  • Weather Map
  • News
  • Weather Widgets
  • user-avatar
    Login

    Hourly Weather Baczkow

    Today, 25 May, Saturday

    Time Temperature Precipitation Wind Pressure Humidity
    00:00 +12°C° 0 mm 2 mps 742 mmHg 92%
    01:00 +12°C° 0 mm 2 mps 741 mmHg 93%
    02:00 +12°C° 0 mm 2 mps 741 mmHg 93%
    03:00 +10°C° 0 mm 2 mps 742 mmHg 93%
    04:00 +10°C° 0 mm 2 mps 742 mmHg 93%
    05:00 +12°C° 0 mm 2 mps 742 mmHg 89%
    06:00 +14°C° 0 mm 2 mps 742 mmHg 86%
    07:00 +16°C° 0 mm 3 mps 742 mmHg 79%
    08:00 +17°C° 0 mm 3 mps 742 mmHg 73%
    09:00 +18°C° 0 mm 3 mps 742 mmHg 66%
    10:00 +20°C° 0 mm 3 mps 742 mmHg 59%
    11:00 +20°C° 0 mm 3 mps 742 mmHg 57%
    12:00 +21°C° 0 mm 3 mps 742 mmHg 55%
    13:00 +22°C° 0 mm 3 mps 742 mmHg 53%
    14:00 +22°C° 0 mm 3 mps 742 mmHg 55%
    15:00 +22°C° 0 mm 3 mps 742 mmHg 57%
    16:00 +22°C° 0 mm 3 mps 741 mmHg 59%
    17:00 +20°C° 0.1 mm 2 mps 741 mmHg 65%
    18:00 +19°C° 0.1 mm 2 mps 741 mmHg 71%
    19:00 +18°C° 0.1 mm 1 mps 741 mmHg 77%
    20:00 +16°C° 0 mm 1 mps 742 mmHg 79%
    21:00 +15°C° 0 mm 1 mps 742 mmHg 82%
    22:00 +14°C° 0 mm 1 mps 743 mmHg 85%
    23:00 +14°C° 0 mm 1 mps 743 mmHg 86%

    Tomorrow, 26 May, Sunday

    Time Temperature Precipitation Wind Pressure Humidity
    00:00 +13°C° 0 mm 1 mps 743 mmHg 87%
    01:00 +13°C° 0 mm 1 mps 743 mmHg 88%
    02:00 +13°C° 0 mm 1 mps 743 mmHg 88%
    03:00 +12°C° 0 mm 1 mps 743 mmHg 88%
    04:00 +12°C° 0 mm 1 mps 743 mmHg 87%
    05:00 +14°C° 0 mm 1 mps 743 mmHg 84%
    06:00 +16°C° 0 mm 1 mps 743 mmHg 80%
    07:00 +18°C° 0 mm 1 mps 743 mmHg 76%
    08:00 +19°C° 0.1 mm 2 mps 743 mmHg 73%
    09:00 +20°C° 0.1 mm 2 mps 743 mmHg 70%
    10:00 +21°C° 0.1 mm 2 mps 743 mmHg 66%
    11:00 +23°C° 0.2 mm 2 mps 743 mmHg 66%
    12:00 +23°C° 0.2 mm 2 mps 743 mmHg 66%
    13:00 +22°C° 0.2 mm 3 mps 742 mmHg 67%
    14:00 +23°C° 0.6 mm 2 mps 742 mmHg 68%
    15:00 +23°C° 0.6 mm 2 mps 742 mmHg 69%
    16:00 +23°C° 0.6 mm 2 mps 742 mmHg 71%
    17:00 +21°C° 0.6 mm 2 mps 742 mmHg 75%
    18:00 +19°C° 0.6 mm 2 mps 742 mmHg 80%
    19:00 +18°C° 0.6 mm 2 mps 742 mmHg 85%
    20:00 +17°C° 0.1 mm 2 mps 742 mmHg 87%
    21:00 +16°C° 0.1 mm 2 mps 742 mmHg 88%
    22:00 +15°C° 0.1 mm 2 mps 742 mmHg 90%
    23:00 +15°C° 0 mm 2 mps 742 mmHg 91%

    Day after tomorrow, 27 May, Monday

    Time Temperature Precipitation Wind Pressure Humidity
    00:00 +15°C° 0 mm 2 mps 742 mmHg 91%
    01:00 +14°C° 0 mm 2 mps 742 mmHg 91%
    02:00 +14°C° 0 mm 2 mps 742 mmHg 91%
    03:00 +14°C° 0 mm 2 mps 742 mmHg 91%
    04:00 +14°C° 0 mm 2 mps 742 mmHg 91%
    05:00 +15°C° 0 mm 2 mps 742 mmHg 87%
    06:00 +17°C° 0 mm 2 mps 742 mmHg 84%
    07:00 +19°C° 0 mm 2 mps 742 mmHg 80%
    08:00 +21°C° 0.1 mm 2 mps 742 mmHg 75%
    09:00 +23°C° 0.1 mm 2 mps 742 mmHg 69%
    10:00 +25°C° 0.1 mm 2 mps 741 mmHg 64%
    11:00 +25°C° 0.4 mm 2 mps 741 mmHg 64%
    12:00 +25°C° 0.4 mm 2 mps 741 mmHg 64%
    13:00 +25°C° 0.4 mm 3 mps 741 mmHg 64%
    14:00 +25°C° 0.2 mm 2 mps 741 mmHg 67%
    15:00 +25°C° 0.2 mm 2 mps 741 mmHg 71%
    16:00 +24°C° 0.2 mm 2 mps 740 mmHg 75%
    17:00 +23°C° 0.1 mm 1 mps 740 mmHg 77%
    18:00 +22°C° 0.1 mm 1 mps 740 mmHg 79%
    19:00 +20°C° 0.1 mm 1 mps 740 mmHg 81%
    20:00 +20°C° 0 mm 1 mps 740 mmHg 83%
    21:00 +19°C° 0 mm 1 mps 740 mmHg 85%
    22:00 +18°C° 0 mm 1 mps 740 mmHg 88%
    23:00 +18°C° 0.4 mm 1 mps 740 mmHg 90%

    28 May, Tuesday

    Time Temperature Precipitation Wind Pressure Humidity
    00:00 +18°C° 0.4 mm 1 mps 739 mmHg 91%
    01:00 +18°C° 0.4 mm 1 mps 739 mmHg 93%
    02:00 +18°C° 0.4 mm 1 mps 739 mmHg 94%
    03:00 +18°C° 0.4 mm 1 mps 739 mmHg 94%
    04:00 +18°C° 0.4 mm 1 mps 738 mmHg 95%
    05:00 +19°C° 0 mm 1 mps 738 mmHg 92%
    06:00 +19°C° 0 mm 2 mps 738 mmHg 89%
    07:00 +20°C° 0 mm 2 mps 738 mmHg 85%
    08:00 +21°C° 0.2 mm 2 mps 738 mmHg 80%
    09:00 +24°C° 0.2 mm 3 mps 737 mmHg 74%
    10:00 +25°C° 0.2 mm 3 mps 737 mmHg 68%
    11:00 +25°C° 0.1 mm 3 mps 737 mmHg 67%
    12:00 +25°C° 0.1 mm 3 mps 736 mmHg 67%
    13:00 +25°C° 0.1 mm 2 mps 736 mmHg 66%
    14:00 +25°C° 0.6 mm 2 mps 735 mmHg 69%
    15:00 +25°C° 0.6 mm 2 mps 735 mmHg 71%
    16:00 +24°C° 0.6 mm 2 mps 735 mmHg 74%
    17:00 +23°C° 0.5 mm 2 mps 735 mmHg 78%
    18:00 +22°C° 0.5 mm 1 mps 734 mmHg 81%
    19:00 +20°C° 0.5 mm 1 mps 734 mmHg 85%
    20:00 +20°C° 0.7 mm 1 mps 734 mmHg 87%
    21:00 +19°C° 0.7 mm 1 mps 734 mmHg 90%
    22:00 +18°C° 0.7 mm 1 mps 734 mmHg 92%
    23:00 +16°C° 0.6 mm 2 mps 734 mmHg 93%

    29 May, Wednesday

    Time Temperature Precipitation Wind Pressure Humidity
    00:00 +16°C° 0.6 mm 2 mps 735 mmHg 94%
    01:00 +15°C° 0.6 mm 2 mps 735 mmHg 95%
    02:00 +15°C° 0 mm 2 mps 735 mmHg 95%
    03:00 +14°C° 0 mm 3 mps 735 mmHg 96%
    04:00 +14°C° 0 mm 3 mps 735 mmHg 97%
    05:00 +14°C° 0.1 mm 3 mps 736 mmHg 95%
    06:00 +14°C° 0.1 mm 3 mps 736 mmHg 94%
    07:00 +14°C° 0.1 mm 4 mps 737 mmHg 93%
    08:00 +14°C° 0.1 mm 4 mps 737 mmHg 91%
    09:00 +14°C° 0.1 mm 4 mps 738 mmHg 90%
    10:00 +13°C° 0.1 mm 5 mps 738 mmHg 88%
    11:00 +13°C° 0.1 mm 5 mps 739 mmHg 88%
    12:00 +13°C° 0.1 mm 5 mps 739 mmHg 88%
    13:00 +13°C° 0.1 mm 5 mps 740 mmHg 87%
    14:00 +13°C° 0.1 mm 5 mps 740 mmHg 87%
    15:00 +13°C° 0.1 mm 4 mps 741 mmHg 86%
    16:00 +13°C° 0.1 mm 4 mps 741 mmHg 86%
    17:00 +12°C° 0.1 mm 4 mps 742 mmHg 87%
    18:00 +12°C° 0.1 mm 4 mps 742 mmHg 88%
    19:00 +11°C° 0.1 mm 3 mps 743 mmHg 89%
    20:00 +11°C° 0.4 mm 3 mps 743 mmHg 90%
    21:00 +10°C° 0.4 mm 3 mps 744 mmHg 91%
    22:00 +10°C° 0.4 mm 2 mps 744 mmHg 93%
    23:00 +10°C° 1 mm 2 mps 744 mmHg 92%

    30 May, Thursday

    Time Temperature Precipitation Wind Pressure Humidity
    00:00 +9°C° 1 mm 3 mps 745 mmHg 92%
    01:00 +9°C° 1 mm 3 mps 745 mmHg 92%
    02:00 +8°C° 1.5 mm 3 mps 746 mmHg 92%
    03:00 +7°C° 1.5 mm 2 mps 746 mmHg 92%
    04:00 +7°C° 1.5 mm 2 mps 747 mmHg 93%
    05:00 +7°C° 0.8 mm 2 mps 747 mmHg 92%
    06:00 +7°C° 0.8 mm 2 mps 748 mmHg 92%
    07:00 +7°C° 0.8 mm 3 mps 748 mmHg 92%
    08:00 +8°C° 0.2 mm 2 mps 748 mmHg 91%
    09:00 +8°C° 0.2 mm 2 mps 749 mmHg 90%
    10:00 +8°C° 0.2 mm 2 mps 749 mmHg 89%
    11:00 +9°C° 0 mm 2 mps 749 mmHg 86%
    12:00 +10°C° 0 mm 2 mps 749 mmHg 83%
    13:00 +10°C° 0 mm 3 mps 749 mmHg 80%
    14:00 +12°C° 0 mm 2 mps 749 mmHg 75%
    15:00 +13°C° 0 mm 2 mps 749 mmHg 70%
    16:00 +14°C° 0 mm 2 mps 749 mmHg 66%
    17:00 +13°C° 0 mm 2 mps 748 mmHg 69%
    18:00 +12°C° 0 mm 1 mps 748 mmHg 72%
    19:00 +12°C° 0 mm 1 mps 748 mmHg 76%
    20:00 +11°C° 0 mm 1 mps 748 mmHg 77%
    21:00 +10°C° 0 mm 1 mps 748 mmHg 78%
    22:00 +9°C° 0 mm 1 mps 748 mmHg 80%
    23:00 +9°C° 0 mm 1 mps 748 mmHg 82%
    Show more